Regional Weather Roundup
Issued by NWS

Home | Current Version | Previous Version | Graphics & Text | Print | Product List | Glossary On
Versions: 1 2 3 4 5 6 7 8 9 10 11 12 13 14 15 16 17 18 19 20 21 22 23 24 25 26 27 28 29 30 31 32 33 34 35 36 37 38 39 40 41 42 43 44 45 46 47 48 49 50
000
ASUS43 KDTX 191110
RWRMI
MICHIGAN HOURLY REGIONAL WEATHER ROUNDUP
NATIONAL WEATHER SERVICE DETROIT/PONTIAC MI
600 AM EST FRI JAN 19 2018

NOTE: "FAIR" INDICATES FEW OR NO CLOUDS BELOW 12,000 FEET WITH NO
SIGNIFICANT WEATHER AND/OR OBSTRUCTION TO VISIBILITY.

MIZ047>049-052>055-059>063-066>070-074>076-081>083-191200-
SOUTHEAST LOWER MICHIGAN

CITY           SKY/WX    TMP DP  RH WIND       PRES   REMARKS
ADRIAN         FAIR      22  13  68 W9        29.98S WCI  12
ALMA           FAIR      25  22  87 SW8       29.85F WCI  16
ANN ARBOR      FAIR      19  13  77 S7        29.94F WCI  10
BAD AXE        FAIR      23  18  80 SW9       29.87R WCI  13
CARO           FAIR      21  16  81 S6        29.86F WCI  14
DETROIT CITY   FAIR      23  14  68 SW9       29.95F WCI  13
DETROIT        FAIR      22  14  71 SW12      29.97F WCI  10
FLINT          FAIR      24  15  68 SW10      29.89F WCI  14
GROSSE ILE     FAIR      24  15  69 SW9       29.96F WCI  14
HILLSDALE      FAIR      27  16  63 SW12      29.94R WCI  16
HOWELL         FAIR      24  17  75 SW8       29.90S WCI  15

CITY           SKY/WX    TMP DP  RH WIND       PRES   REMARKS
JACKSON        FAIR      24  15  68 SW17      29.92F WCI  11
LAMBERTVILLE   FAIR      24  14  66 SW13      29.99S WCI  12
LANSING        FAIR      25  17  72 SW15      29.89F WCI  13
LAPEER         FAIR      24  17  72 SW8       29.88F WCI  15
MASON          FAIR      26  15  63 SW7       29.91S WCI  18
MONROE         FAIR      22  13  66 SW13      29.98R WCI  10
MT. CLEMENS    FAIR     N/A N/A N/A S8          N/A
PONTIAC        FAIR      25  16  68 SW8       29.89F WCI  16
PORT HOPE        N/A     25  18  74 SW7       29.83F WCI  17
PORT HURON     FAIR      21  14  73 S7        29.93S WCI  13
TRI CITIES     FAIR      24  20  84 S8        29.86S WCI  15
MIDLAND        FAIR      22  20  91 CALM      29.84S
TROY           FAIR      23  15  73 SW6       29.95F WCI  15
SAGINAW HB     FAIR      23  19  86 S7        29.86S WCI  15
$$
MIZ043>046-050>051-056>058-064>065-071>073-077>080-191200-
SOUTHWEST LOWER MICHIGAN

CITY           SKY/WX    TMP DP  RH WIND       PRES   REMARKS
BATTLE CREEK   FAIR      21  14  74 SW10      29.92S WCI  10
BENTON HARBOR  FAIR      25  16  68 S8        29.95R WCI  16
BIG RAPIDS     FAIR      29  22  75 SW12      29.81R WCI  19
COLDWATER      FAIR      24  16  69 SW13      29.96S WCI  13
FREMONT        FAIR      29  20  69 SW7       29.84R WCI  22
HOLLAND        FAIR      32  25  75 SW17G25   29.89F WCI  21
GRAND RAPIDS   FAIR      25  18  74 SW13      29.87F WCI  14
IONIA          FAIR      26  19  74 SW15G21   29.86F WCI  13
KALAMAZOO      FAIR      26  17  68 SW12      29.94R WCI  16
LUDINGTON      FAIR      31  26  80 SW9G16    29.81F WCI  23
MARSHALL       FAIR      23  15  71 SW10      29.92F WCI  12
MOUNT PLEASANT FAIR      30  23  74 SW6       29.83R WCI  24
MUSKEGON       FAIR      34  24  67 SW17G25   29.86F WCI  23
SOUTH HAVEN    FAIR      31  22  68 SW14G20   29.92F WCI  21
$$
MIZ016>042-191200-
NORTHERN LOWER MICHIGAN

CITY           SKY/WX    TMP DP  RH WIND       PRES   REMARKS
ALPENA         FAIR      28  23  81 SW8       29.78F WCI  20
BEAVER ISLAND  FAIR      32  28  85 SW8       29.72S WCI  24
BELLAIRE       FAIR      26  25  94 S3        29.78S
CADILLAC       FAIR      24  23  94 SW9       29.75F WCI  14
CHARLEVOIX     FAIR      29  26  89 S3        29.78F
FRANKFORT      FAIR      34  27  75 SW7       29.78S WCI  28
GAYLORD        FAIR      24  23  96 SW6       29.73S WCI  17
GRAYLING       FAIR      24  21  89 SW5       29.77S WCI  18
HARBOR SPRINGS FAIR      29  26  88 SW5       29.74F WCI  23
HOUGHTON LAKE  FAIR      24  20  84 SW8       29.78S WCI  15
MANISTEE       FAIR      27  23  85 CALM      29.79F
OSCODA         FAIR      24  19  84 SW7       29.82S WCI  15
PELLSTON       FAIR      30  25  81 SW7       29.74F WCI  23
ROGERS CITY    FAIR      29  24  82 SW7       29.77S WCI  22
TRAVERSE CITY  FAIR      28  23  81 S3        29.77R
$$
MIZ007>008-015-191200-
EASTERN UPPER MICHIGAN

CITY           SKY/WX    TMP DP  RH WIND       PRES   REMARKS
KINROSS        CLOUDY    30  27  88 S6        29.70  WCI  24
MACKINAC ISLAN FAIR      31  28  86 SW8       29.72S WCI  24
NEWBERRY       FAIR      26  26  97 S6        29.67F WCI  20
S. S. MARIE    CLOUDY    32  25  75 S5        29.69F WCI  27
MUNISING         N/A     28  24  85 S10       29.66F WCI  19
$$
MIZ004>006-011>014-085-191200-
CENTRAL UPPER MICHIGAN

CITY           SKY/WX    TMP DP  RH WIND       PRES   REMARKS
MANISTIQUE     FAIR      25  24  95 SW6       29.69F WCI  18
ESCANABA       FAIR      18  16  92 CALM      29.71S
MENOMINEE      FAIR      22  18  85 SW8       29.74F WCI  12
SAWYER-GWINN   FAIR      23  20  89 S10       29.63F WCI  12
$$
MIZ001>003-009>011-084-191200-
WESTERN UPPER MICHIGAN

CITY           SKY/WX    TMP DP  RH WIND       PRES   REMARKS
IRON MOUNTAIN  FAIR      17  14  88 S3        29.65F
HOUGHTON       FAIR      26  20  77 SW6       29.57F WCI  19
COPPER HARBOR    N/A     30  24  78 SW7       29.59F WCI  23
IRONWOOD       FAIR      29  25  85 VRB7      29.58F WCI  22
$$

ABBREVIATIONS USED IN REMARKS
   TC - TEMPERATURE IN CELSIUS
  WCI - WIND CHILL INDEX
   HX - HEAT INDEX
  VSB - VISIBILITY





USA.gov is the U.S. government's official web portal to all federal, state and local government web resources and services.